Tracking 22779 objects as of 12-Apr-2021
HD Live streaming from Space Station
objects crossing your sky now

STARLINK-1558

Track STARLINK-1558 now!
10-day predictions
STARLINK-1558 is classified as:


NORAD ID: 46035
Int'l Code: 2020-055J
Perigee: 553.4 km
Apogee: 555.4 km
Inclination: 53.1 °
Period: 95.6 minutes
Semi major axis: 6925 km
RCS: Unknown
Launch date: August 7, 2020
Source: United States (US)
Launch site: AIR FORCE EASTERN TEST RANGE (AFETR)
aabbcc
Your satellite tracking list
Your tracking list is empty




NASA's NSSDC Master Catalog

Two Line Element Set (TLE):
1 46035U 20055J   21101.85486739 -.00000648  00000-0 -24586-4 0  9994
2 46035  53.0549 254.9673 0001455 103.3667 256.7484 15.06395771 38677
Source of the keplerian elements: AFSPC